05-04-2023, 00:00:00,    217,    0.0,    5.2,   0.00,   0.00, 1019.7,   66.4, -999.0
05-04-2023, 00:00:10,    230,    0.0,    5.1,   0.00,   0.00, 1019.8,   66.4, -999.0
05-04-2023, 00:00:20,    231,    0.0,    5.1,   0.00,   0.00, 1019.7,   66.5, -999.0
05-04-2023, 00:00:30,    231,    0.0,    5.1,   0.00,   0.00, 1019.7,   66.4, -999.0
05-04-2023, 00:00:40,    231,    0.0,    5.1,   0.00,   0.00, 1019.7,   66.4, -999.0
05-04-2023, 00:00:50,    232,    0.0,    5.1,   0.00,   0.00, 1019.7,   66.4, -999.0
05-04-2023, 00:01:00,    231,    0.0,    5.1,   0.00,   0.00, 1019.7,   66.5, -999.0
05-04-2023, 00:01:10,    231,    0.0,    5.1,   0.00,   0.00, 1019.7,   66.5, -999.0
05-04-2023, 00:01:20,    231,    0.0,    5.1,   0.00,   0.00, 1019.7,   66.6, -999.0
05-04-2023, 00:01:30,    231,    0.0,    5.1,   0.00,   0.00, 1019.7,   66.6, -999.0
05-04-2023, 00:01:40,    231,    0.0,    5.1,   0.00,   0.00, 1019.7,   66.5, -999.0
05-04-2023, 00:01:50,    231,    0.0,    5.1,   0.00,   0.00, 1019.6,   66.6, -999.0
05-04-2023, 00:02:00,    230,    0.0,    5.1,   0.00,   0.00, 1019.7,   66.6, -999.0
05-04-2023, 00:02:10,    231,    0.0,    5.1,   0.00,   0.00, 1019.7,   66.7, -999.0
05-04-2023, 00:02:20,    230,    0.0,    5.1,   0.00,   0.00, 1019.7,   66.7, -999.0
05-04-2023, 00:02:30,    229,    0.0,    5.0,   0.00,   0.00, 1019.7,   66.6, -999.0
05-04-2023, 00:02:40,    229,    0.0,    5.1,   0.00,   0.00, 1019.7,   66.7, -999.0
05-04-2023, 00:02:50,    229,    0.0,    4.9,   0.00,   0.00, 1019.7,   66.8, -999.0
05-04-2023, 00:03:00,    220,    0.0,    5.0,   0.00,   0.00, 1019.7,   66.8, -999.0
05-04-2023, 00:03:10,    220,    0.0,    5.1,   0.00,   0.00, 1019.7,   66.6, -999.0
05-04-2023, 00:03:20,    220,    0.0,    5.0,   0.00,   0.00, 1019.7,   66.6, -999.0
05-04-2023, 00:03:30,    220,    0.0,    5.0,   0.00,   0.00, 1019.7,   66.7, -999.0
05-04-2023, 00:03:40,    220,    0.0,    5.1,   0.00,   0.00, 1019.7,   66.7, -999.0
05-04-2023, 00:03:50,    219,    0.0,    5.1,   0.00,   0.00, 1019.7,   66.7, -999.0
05-04-2023, 00:04:00,    220,    0.0,    5.1,   0.00,   0.00, 1019.7,   66.7, -999.0
05-04-2023, 00:04:10,    220,    0.0,    5.0,   0.00,   0.00, 1019.7,   66.7, -999.0
05-04-2023, 00:04:20,    223,    0.0,    5.1,   0.00,   0.00, 1019.7,   66.9, -999.0
05-04-2023, 00:04:30,    224,    0.0,    5.1,   0.00,   0.00, 1019.7,   66.9, -999.0
05-04-2023, 00:04:40,    223,    0.0,    5.1,   0.00,   0.00, 1019.7,   66.8, -999.0
05-04-2023, 00:04:49,    224,    0.0,    5.1,   0.00,   0.00, 1019.7,   66.7, -999.0
05-04-2023, 00:05:00,    223,    0.0,    5.1,   0.00,   0.00, 1019.7,   66.8, -999.0
05-04-2023, 00:05:10,    224,    0.0,    5.0,   0.00,   0.00, 1019.6,   66.7, -999.0
05-04-2023, 00:05:20,    224,    0.0,    5.0,   0.00,   0.00, 1019.7,   66.8, -999.0
05-04-2023, 00:05:29,    224,    0.0,    5.1,   0.00,   0.00, 1019.7,   66.8, -999.0
05-04-2023, 00:05:40,    224,    0.0,    5.1,   0.00,   0.00, 1019.7,   66.9, -999.0
05-04-2023, 00:05:50,    224,    0.0,    5.0,   0.00,   0.00, 1019.6,   66.9, -999.0
05-04-2023, 00:05:59,    223,    0.0,    5.1,   0.00,   0.00, 1019.7,   67.0, -999.0
05-04-2023, 00:06:09,    224,    0.0,    5.2,   0.00,   0.00, 1019.7,   67.1, -999.0
05-04-2023, 00:06:20,    224,    0.0,    5.1,   0.00,   0.00, 1019.6,   67.1, -999.0
05-04-2023, 00:06:29,    224,    0.0,    5.1,   0.00,   0.00, 1019.6,   67.0, -999.0
05-04-2023, 00:06:39,    224,    0.0,    5.1,   0.00,   0.00, 1019.6,   66.8, -999.0
05-04-2023, 00:06:49,    224,    0.0,    5.0,   0.00,   0.00, 1019.6,   66.8, -999.0
05-04-2023, 00:07:00,    224,    0.0,    5.1,   0.00,   0.00, 1019.6,   66.9, -999.0
05-04-2023, 00:07:09,    224,    0.0,    5.1,   0.00,   0.00, 1019.6,   66.9, -999.0
05-04-2023, 00:07:19,    224,    0.0,    5.1,   0.00,   0.00, 1019.6,   67.0, -999.0
05-04-2023, 00:07:29,    224,    0.0,    5.1,   0.00,   0.00, 1019.6,   67.0, -999.0
05-04-2023, 00:07:40,    223,    0.0,    5.0,   0.00,   0.00, 1019.6,   66.9, -999.0
05-04-2023, 00:07:49,    224,    0.0,    5.1,   0.00,   0.00, 1019.6,   66.9, -999.0
05-04-2023, 00:07:59,    224,    0.0,    5.1,   0.00,   0.00, 1019.6,   67.1, -999.0
05-04-2023, 00:08:09,    223,    0.0,    5.0,   0.00,   0.00, 1019.6,   67.1, -999.0
05-04-2023, 00:08:19,    224,    0.0,    5.0,   0.00,   0.00, 1019.6,   67.0, -999.0
05-04-2023, 00:08:29,    224,    0.0,    5.0,   0.00,   0.00, 1019.6,   66.9, -999.0
05-04-2023, 00:08:39,    224,    0.0,    5.0,   0.00,   0.00, 1019.6,   67.1, -999.0
05-04-2023, 00:08:49,    224,    0.0,    5.0,   0.00,   0.00, 1019.6,   67.1, -999.0
05-04-2023, 00:08:59,    224,    0.0,    5.0,   0.00,   0.00, 1019.6,   67.1, -999.0
05-04-2023, 00:09:09,    225,    0.0,    5.1,   0.00,   0.00, 1019.6,   67.2, -999.0
05-04-2023, 00:09:19,    224,    0.0,    5.1,   0.00,   0.00, 1019.6,   67.1, -999.0
05-04-2023, 00:09:29,    224,    0.0,    5.0,   0.00,   0.00, 1019.6,   67.1, -999.0
05-04-2023, 00:09:39,    224,    0.0,    5.0,   0.00,   0.00, 1019.6,   67.1, -999.0
05-04-2023, 00:09:49,    224,    0.0,    5.0,   0.00,   0.00, 1019.6,   67.2, -999.0
05-04-2023, 00:09:59,    224,    0.0,    5.0,   0.00,   0.00, 1019.6,   67.1, -999.0
05-04-2023, 00:10:09,    224,    0.0,    5.0,   0.00,   0.00, 1019.6,   67.2, -999.0
05-04-2023, 00:10:19,    224,    0.0,    5.0,   0.00,   0.00, 1019.6,   67.1, -999.0
05-04-2023, 00:10:29,    224,    0.0,    5.0,   0.00,   0.00, 1019.6,   67.3, -999.0
05-04-2023, 00:10:39,    224,    0.0,    5.0,   0.00,   0.00, 1019.6,   67.3, -999.0
05-04-2023, 00:10:49,    225,    0.0,    5.0,   0.00,   0.00, 1019.6,   67.3, -999.0
05-04-2023, 00:10:59,    225,    0.0,    5.0,   0.00,   0.00, 1019.6,   67.1, -999.0
05-04-2023, 00:11:09,    226,    0.0,    5.0,   0.00,   0.00, 1019.6,   67.2, -999.0
05-04-2023, 00:11:19,    226,    0.0,    5.1,   0.00,   0.00, 1019.6,   67.2, -999.0
05-04-2023, 00:11:29,    226,    0.0,    5.0,   0.00,   0.00, 1019.6,   67.1, -999.0
05-04-2023, 00:11:39,    231,    0.0,    5.0,   0.00,   0.00, 1019.6,   67.1, -999.0
05-04-2023, 00:11:49,    231,    0.0,    4.9,   0.00,   0.00, 1019.6,   67.1, -999.0
05-04-2023, 00:11:59,    231,    0.0,    5.1,   0.00,   0.00, 1019.6,   67.2, -999.0
05-04-2023, 00:12:09,    230,    0.0,    5.0,   0.00,   0.00, 1019.6,   67.2, -999.0
05-04-2023, 00:12:19,    230,    0.0,    4.9,   0.00,   0.00, 1019.6,   67.1, -999.0
05-04-2023, 00:12:29,    231,    0.0,    4.9,   0.00,   0.00, 1019.5,   67.3, -999.0
05-04-2023, 00:12:39,    231,    0.0,    5.0,   0.00,   0.00, 1019.6,   67.5, -999.0
05-04-2023, 00:12:49,    231,    0.0,    5.0,   0.00,   0.00, 1019.6,   67.6, -999.0
05-04-2023, 00:12:59,    231,    0.0,    5.0,   0.00,   0.00, 1019.6,   67.5, -999.0
05-04-2023, 00:13:09,    231,    0.0,    4.9,   0.00,   0.00, 1019.6,   67.7, -999.0
05-04-2023, 00:13:19,    231,    0.0,    5.0,   0.00,   0.00, 1019.6,   67.6, -999.0
05-04-2023, 00:13:29,    231,    0.0,    5.0,   0.00,   0.00, 1019.6,   67.6, -999.0
05-04-2023, 00:13:39,    231,    0.0,    4.9,   0.00,   0.00, 1019.6,   67.5, -999.0
05-04-2023, 00:13:49,    231,    0.0,    4.8,   0.00,   0.00, 1019.6,   67.6, -999.0
05-04-2023, 00:13:58,    231,    0.0,    5.0,   0.00,   0.00, 1019.6,   67.6, -999.0
05-04-2023, 00:14:09,    231,    0.0,    4.9,   0.00,   0.00, 1019.6,   67.5, -999.0
05-04-2023, 00:14:19,    231,    0.0,    4.9,   0.00,   0.00, 1019.6,   67.6, -999.0
05-04-2023, 00:14:28,    231,    0.0,    4.9,   0.00,   0.00, 1019.6,   67.6, -999.0
05-04-2023, 00:14:38,    231,    0.0,    4.9,   0.00,   0.00, 1019.6,   67.6, -999.0
05-04-2023, 00:14:49,    231,    0.0,    5.0,   0.00,   0.00, 1019.6,   67.7, -999.0
05-04-2023, 00:14:59,    231,    0.0,    5.0,   0.00,   0.00, 1019.6,   67.8, -999.0
05-04-2023, 00:15:08,    231,    0.0,    5.1,   0.00,   0.00, 1019.6,   67.8, -999.0
05-04-2023, 00:15:18,    231,    0.0,    4.8,   0.00,   0.00, 1019.6,   67.9, -999.0
05-04-2023, 00:15:29,    231,    0.0,    4.9,   0.00,   0.00, 1019.6,   67.8, -999.0
05-04-2023, 00:15:38,    232,    0.0,    4.9,   0.00,   0.00, 1019.6,   67.8, -999.0
05-04-2023, 00:15:48,    231,    0.0,    5.0,   0.00,   0.00, 1019.6,   67.8, -999.0
05-04-2023, 00:15:59,    232,    0.0,    5.0,   0.00,   0.00, 1019.6,   67.7, -999.0
05-04-2023, 00:16:09,    231,    0.0,    4.9,   0.00,   0.00, 1019.6,   67.8, -999.0
05-04-2023, 00:16:18,    231,    0.0,    4.8,   0.00,   0.00, 1019.6,   67.7, -999.0
05-04-2023, 00:16:28,    232,    0.0,    4.8,   0.00,   0.00, 1019.6,   67.7, -999.0
05-04-2023, 00:16:39,    231,    0.0,    4.9,   0.00,   0.00, 1019.6,   67.7, -999.0
05-04-2023, 00:16:48,    232,    0.0,    4.8,   0.00,   0.00, 1019.6,   67.8, -999.0
05-04-2023, 00:16:58,    231,    0.0,    4.9,   0.00,   0.00, 1019.5,   67.9, -999.0
05-04-2023, 00:17:08,    231,    0.0,    4.9,   0.00,   0.00, 1019.6,   67.9, -999.0
05-04-2023, 00:17:18,    231,    0.0,    4.9,   0.00,   0.00, 1019.6,   67.9, -999.0
05-04-2023, 00:17:28,    232,    0.0,    4.6,   0.00,   0.00, 1019.6,   67.9, -999.0
05-04-2023, 00:17:38,    231,    0.0,    4.9,   0.00,   0.00, 1019.6,   68.0, -999.0
05-04-2023, 00:17:48,    232,    0.0,    5.0,   0.00,   0.00, 1019.6,   68.1, -999.0
05-04-2023, 00:17:58,    231,    0.0,    5.0,   0.00,   0.00, 1019.6,   68.0, -999.0
05-04-2023, 00:18:08,    231,    0.0,    5.0,   0.00,   0.00, 1019.6,   68.2, -999.0
05-04-2023, 00:18:18,    230,    0.0,    4.9,   0.00,   0.00, 1019.6,   68.1, -999.0
05-04-2023, 00:18:28,    229,    0.0,    4.9,   0.00,   0.00, 1019.6,   67.9, -999.0
05-04-2023, 00:18:38,    229,    0.0,    5.0,   0.00,   0.00, 1019.5,   67.9, -999.0
05-04-2023, 00:18:48,    230,    0.0,    4.9,   0.00,   0.00, 1019.6,   68.0, -999.0
05-04-2023, 00:18:58,    229,    0.0,    5.0,   0.00,   0.00, 1019.5,   67.9, -999.0
05-04-2023, 00:19:08,    229,    0.0,    4.9,   0.00,   0.00, 1019.5,   68.0, -999.0
05-04-2023, 00:19:18,    230,    0.0,    4.9,   0.00,   0.00, 1019.5,   68.0, -999.0
05-04-2023, 00:19:28,    229,    0.0,    4.9,   0.00,   0.00, 1019.5,   68.0, -999.0
05-04-2023, 00:19:38,    229,    0.0,    5.0,   0.00,   0.00, 1019.5,   67.9, -999.0
05-04-2023, 00:19:48,    229,    0.0,    4.9,   0.00,   0.00, 1019.6,   68.0, -999.0
05-04-2023, 00:19:58,    229,    0.0,    4.9,   0.00,   0.00, 1019.5,   67.9, -999.0
05-04-2023, 00:20:08,    231,    0.0,    4.9,   0.00,   0.00, 1019.5,   68.0, -999.0
05-04-2023, 00:20:18,    229,    0.0,    4.9,   0.00,   0.00, 1019.6,   68.0, -999.0
05-04-2023, 00:20:28,    229,    0.0,    4.9,   0.00,   0.00, 1019.5,   68.0, -999.0
05-04-2023, 00:20:38,    229,    0.0,    4.8,   0.00,   0.00, 1019.5,   68.2, -999.0
05-04-2023, 00:20:48,    230,    0.0,    4.9,   0.00,   0.00, 1019.5,   68.1, -999.0
05-04-2023, 00:20:58,    229,    0.0,    4.9,   0.00,   0.00, 1019.5,   68.3, -999.0
05-04-2023, 00:21:08,    229,    0.0,    4.9,   0.00,   0.00, 1019.5,   68.3, -999.0
05-04-2023, 00:21:18,    230,    0.0,    4.9,   0.00,   0.00, 1019.6,   68.2, -999.0
05-04-2023, 00:21:28,    230,    0.0,    4.8,   0.00,   0.00, 1019.5,   68.1, -999.0
05-04-2023, 00:21:38,    230,    0.0,    4.9,   0.00,   0.00, 1019.5,   68.2, -999.0
05-04-2023, 00:21:48,    230,    0.0,    4.9,   0.00,   0.00, 1019.5,   68.2, -999.0
05-04-2023, 00:21:58,    231,    0.0,    4.9,   0.00,   0.00, 1019.5,   68.3, -999.0
05-04-2023, 00:22:08,    230,    0.0,    4.9,   0.00,   0.00, 1019.5,   68.4, -999.0
05-04-2023, 00:22:18,    230,    0.0,    5.0,   0.00,   0.00, 1019.6,   68.3, -999.0
05-04-2023, 00:22:28,    230,    0.0,    4.9,   0.00,   0.00, 1019.6,   68.3, -999.0
05-04-2023, 00:22:38,    230,    0.0,    4.8,   0.00,   0.00, 1019.6,   68.3, -999.0
05-04-2023, 00:22:48,    230,    0.0,    4.9,   0.00,   0.00, 1019.6,   68.3, -999.0
05-04-2023, 00:22:58,    230,    0.0,    4.9,   0.00,   0.00, 1019.5,   68.3, -999.0
05-04-2023, 00:23:08,    230,    0.0,    4.8,   0.00,   0.00, 1019.6,   68.3, -999.0
05-04-2023, 00:23:18,    230,    0.0,    4.8,   0.00,   0.00, 1019.6,   68.3, -999.0
05-04-2023, 00:23:28,    230,    0.0,    4.9,   0.00,   0.00, 1019.6,   68.3, -999.0
05-04-2023, 00:23:37,    230,    0.0,    4.9,   0.00,   0.00, 1019.5,   68.2, -999.0
05-04-2023, 00:23:48,    230,    0.0,    4.9,   0.00,   0.00, 1019.5,   68.2, -999.0
05-04-2023, 00:23:58,    230,    0.0,    4.7,   0.00,   0.00, 1019.5,   68.2, -999.0
05-04-2023, 00:24:07,    230,    0.0,    4.9,   0.00,   0.00, 1019.6,   68.3, -999.0
05-04-2023, 00:24:17,    230,    0.0,    4.8,   0.00,   0.00, 1019.5,   68.4, -999.0
05-04-2023, 00:24:28,    228,    0.0,    4.9,   0.00,   0.00, 1019.5,   68.5, -999.0
05-04-2023, 00:24:38,    232,    0.0,    4.9,   0.00,   0.00, 1019.5,   68.5, -999.0
05-04-2023, 00:24:47,    233,    0.0,    4.8,   0.00,   0.00, 1019.5,   68.6, -999.0
05-04-2023, 00:24:57,    233,    0.0,    4.7,   0.00,   0.00, 1019.5,   68.6, -999.0
05-04-2023, 00:25:08,    233,    0.0,    4.8,   0.00,   0.00, 1019.5,   68.4, -999.0
05-04-2023, 00:25:17,    233,    0.0,    4.8,   0.00,   0.00, 1019.5,   68.4, -999.0
05-04-2023, 00:25:27,    233,    0.0,    4.8,   0.00,   0.00, 1019.5,   68.3, -999.0
05-04-2023, 00:25:38,    234,    0.0,    4.8,   0.00,   0.00, 1019.5,   68.4, -999.0
05-04-2023, 00:25:48,    234,    0.0,    4.7,   0.00,   0.00, 1019.5,   68.5, -999.0
05-04-2023, 00:25:57,    234,    0.0,    4.7,   0.00,   0.00, 1019.5,   68.5, -999.0
05-04-2023, 00:26:07,    234,    0.0,    4.7,   0.00,   0.00, 1019.5,   68.6, -999.0
05-04-2023, 00:26:18,    235,    0.0,    4.8,   0.00,   0.00, 1019.5,   68.6, -999.0
05-04-2023, 00:26:27,    174,    0.0,    4.8,   0.00,   0.00, 1019.5,   68.4, -999.0
05-04-2023, 00:26:37,    174,    0.0,    4.8,   0.00,   0.00, 1019.5,   68.4, -999.0
05-04-2023, 00:26:47,    174,    0.0,    4.8,   0.00,   0.00, 1019.5,   68.6, -999.0
05-04-2023, 00:26:58,    173,    0.0,    4.8,   0.00,   0.00, 1019.5,   68.5, -999.0
05-04-2023, 00:27:07,    173,    0.0,    4.8,   0.00,   0.00, 1019.5,   68.5, -999.0
05-04-2023, 00:27:17,    174,    0.0,    4.8,   0.00,   0.00, 1019.5,   68.6, -999.0
05-04-2023, 00:27:27,    174,    0.0,    4.8,   0.00,   0.00, 1019.5,   68.5, -999.0
05-04-2023, 00:27:37,    175,    0.0,    4.7,   0.00,   0.00, 1019.5,   68.4, -999.0
05-04-2023, 00:27:47,    175,    0.0,    4.7,   0.00,   0.00, 1019.5,   68.5, -999.0
05-04-2023, 00:27:57,    175,    0.0,    4.7,   0.00,   0.00, 1019.5,   68.4, -999.0
05-04-2023, 00:28:07,    180,    0.0,    4.8,   0.00,   0.00, 1019.5,   68.3, -999.0
05-04-2023, 00:28:17,    181,    0.0,    4.7,   0.00,   0.00, 1019.5,   68.4, -999.0
05-04-2023, 00:28:27,    181,    0.0,    4.7,   0.00,   0.00, 1019.5,   68.5, -999.0
05-04-2023, 00:28:37,    181,    0.0,    4.7,   0.00,   0.00, 1019.5,   68.5, -999.0
05-04-2023, 00:28:47,    185,    0.0,    4.8,   0.00,   0.00, 1019.5,   68.5, -999.0
05-04-2023, 00:28:57,    191,    0.0,    4.7,   0.00,   0.00, 1019.5,   68.4, -999.0
05-04-2023, 00:29:07,    201,    0.3,    4.8,   0.00,   0.00, 1019.5,   68.4, -999.0
05-04-2023, 00:29:17,    200,    0.3,    4.8,   0.00,   0.00, 1019.6,   68.7, -999.0
05-04-2023, 00:29:27,    201,    1.5,    4.8,   0.00,   0.00, 1019.6,   68.8, -999.0
05-04-2023, 00:29:37,    217,    0.8,    4.7,   0.00,   0.00, 1019.6,   68.8, -999.0
05-04-2023, 00:29:47,    216,    0.0,    4.7,   0.00,   0.00, 1019.5,   68.7, -999.0
05-04-2023, 00:29:57,    214,    0.1,    4.8,   0.00,   0.00, 1019.6,   68.8, -999.0
05-04-2023, 00:30:07,    215,    0.0,    4.7,   0.00,   0.00, 1019.5,   68.7, -999.0
05-04-2023, 00:30:17,    216,    0.0,    4.7,   0.00,   0.00, 1019.5,   68.7, -999.0
05-04-2023, 00:30:27,    217,    0.0,    4.7,   0.00,   0.00, 1019.5,   68.6, -999.0
05-04-2023, 00:30:37,    217,    0.0,    4.7,   0.00,   0.00, 1019.5,   68.5, -999.0
05-04-2023, 00:30:47,    217,    0.0,    4.8,   0.00,   0.00, 1019.5,   68.7, -999.0
05-04-2023, 00:30:57,    217,    0.0,    4.7,   0.00,   0.00, 1019.5,   68.7, -999.0
05-04-2023, 00:31:07,    217,    0.0,    4.8,   0.00,   0.00, 1019.5,   68.7, -999.0
05-04-2023, 00:31:17,    217,    0.0,    4.7,   0.00,   0.00, 1019.5,   68.7, -999.0
05-04-2023, 00:31:27,    217,    0.0,    4.7,   0.00,   0.00, 1019.5,   68.8, -999.0
05-04-2023, 00:31:37,    217,    0.0,    4.8,   0.00,   0.00, 1019.5,   68.8, -999.0
05-04-2023, 00:31:47,    216,    0.0,    4.7,   0.00,   0.00, 1019.5,   68.8, -999.0
05-04-2023, 00:31:57,    217,    0.0,    4.8,   0.00,   0.00, 1019.5,   68.9, -999.0
05-04-2023, 00:32:07,    216,    0.0,    4.7,   0.00,   0.00, 1019.5,   68.8, -999.0
05-04-2023, 00:32:17,    217,    0.0,    4.7,   0.00,   0.00, 1019.5,   68.7, -999.0
05-04-2023, 00:32:27,    217,    0.0,    4.8,   0.00,   0.00, 1019.5,   68.7, -999.0
05-04-2023, 00:32:37,    217,    0.0,    4.6,   0.00,   0.00, 1019.5,   68.8, -999.0
05-04-2023, 00:32:46,    217,    0.0,    4.7,   0.00,   0.00, 1019.5,   68.8, -999.0
05-04-2023, 00:32:57,    217,    0.0,    4.6,   0.00,   0.00, 1019.5,   68.7, -999.0
05-04-2023, 00:33:07,    217,    0.0,    4.7,   0.00,   0.00, 1019.5,   68.7, -999.0
05-04-2023, 00:33:17,    217,    0.0,    4.8,   0.00,   0.00, 1019.5,   68.7, -999.0
05-04-2023, 00:33:27,    217,    0.0,    4.6,   0.00,   0.00, 1019.5,   68.8, -999.0
05-04-2023, 00:33:37,    218,    0.0,    4.7,   0.00,   0.00, 1019.5,   68.9, -999.0
05-04-2023, 00:33:47,    217,    0.0,    4.6,   0.00,   0.00, 1019.5,   68.8, -999.0
05-04-2023, 00:33:56,    217,    0.0,    4.7,   0.00,   0.00, 1019.5,   68.8, -999.0
05-04-2023, 00:34:07,    218,    0.0,    4.6,   0.00,   0.00, 1019.5,   68.8, -999.0
05-04-2023, 00:34:17,    218,    0.0,    4.7,   0.00,   0.00, 1019.5,   68.7, -999.0
05-04-2023, 00:34:26,    218,    0.0,    4.7,   0.00,   0.00, 1019.5,   68.9, -999.0
05-04-2023, 00:34:36,    217,    0.0,    4.7,   0.00,   0.00, 1019.5,   68.9, -999.0
05-04-2023, 00:34:47,    218,    0.0,    4.7,   0.00,   0.00, 1019.5,   68.8, -999.0
05-04-2023, 00:34:57,    217,    0.0,    4.7,   0.00,   0.00, 1019.5,   68.9, -999.0
05-04-2023, 00:35:06,    217,    0.0,    4.7,   0.00,   0.00, 1019.5,   69.1, -999.0
05-04-2023, 00:35:16,    218,    0.0,    4.7,   0.00,   0.00, 1019.5,   69.0, -999.0
05-04-2023, 00:35:27,    218,    0.0,    4.7,   0.00,   0.00, 1019.5,   68.9, -999.0
05-04-2023, 00:35:36,    217,    0.0,    4.7,   0.00,   0.00, 1019.5,   68.9, -999.0
05-04-2023, 00:35:46,    217,    0.0,    4.6,   0.00,   0.00, 1019.5,   68.7, -999.0
05-04-2023, 00:35:56,    217,    0.0,    4.7,   0.00,   0.00, 1019.5,   68.9, -999.0
05-04-2023, 00:36:06,    218,    0.0,    4.7,   0.00,   0.00, 1019.5,   68.9, -999.0
05-04-2023, 00:36:16,    217,    0.0,    4.7,   0.00,   0.00, 1019.5,   69.1, -999.0
05-04-2023, 00:36:26,    217,    0.0,    4.7,   0.00,   0.00, 1019.5,   69.1, -999.0
05-04-2023, 00:36:37,    217,    0.0,    4.7,   0.00,   0.00, 1019.5,   69.1, -999.0
05-04-2023, 00:36:46,    217,    0.0,    4.6,   0.00,   0.00, 1019.6,   69.1, -999.0
05-04-2023, 00:36:56,    217,    0.0,    4.7,   0.00,   0.00, 1019.6,   69.1, -999.0
05-04-2023, 00:37:06,    218,    0.0,    4.7,   0.00,   0.00, 1019.5,   69.1, -999.0
05-04-2023, 00:37:16,    217,    0.0,    4.7,   0.00,   0.00, 1019.5,   69.0, -999.0
05-04-2023, 00:37:26,    217,    0.0,    4.7,   0.00,   0.00, 1019.6,   69.1, -999.0
05-04-2023, 00:37:36,    218,    0.0,    4.6,   0.00,   0.00, 1019.5,   69.1, -999.0
05-04-2023, 00:37:46,    217,    0.0,    4.6,   0.00,   0.00, 1019.6,   69.1, -999.0
05-04-2023, 00:37:56,    217,    0.0,    4.7,   0.00,   0.00, 1019.5,   69.0, -999.0
05-04-2023, 00:38:06,    218,    0.0,    4.6,   0.00,   0.00, 1019.5,   69.1, -999.0
05-04-2023, 00:38:16,    217,    0.0,    4.7,   0.00,   0.00, 1019.6,   69.2, -999.0
05-04-2023, 00:38:26,    217,    0.0,    4.7,   0.00,   0.00, 1019.6,   69.2, -999.0
05-04-2023, 00:38:36,    217,    0.0,    4.7,   0.00,   0.00, 1019.5,   69.2, -999.0
05-04-2023, 00:38:46,    217,    0.0,    4.7,   0.00,   0.00, 1019.5,   69.3, -999.0
05-04-2023, 00:38:56,    217,    0.0,    4.7,   0.00,   0.00, 1019.5,   69.1, -999.0
05-04-2023, 00:39:06,    217,    0.0,    4.7,   0.00,   0.00, 1019.5,   69.2, -999.0
05-04-2023, 00:39:16,    217,    0.0,    4.6,   0.00,   0.00, 1019.5,   69.1, -999.0
05-04-2023, 00:39:26,    217,    0.0,    4.7,   0.00,   0.00, 1019.5,   69.1, -999.0
05-04-2023, 00:39:36,    217,    0.0,    4.6,   0.00,   0.00, 1019.5,   69.1, -999.0
05-04-2023, 00:39:46,    217,    0.0,    4.5,   0.00,   0.00, 1019.5,   69.2, -999.0
05-04-2023, 00:39:56,    217,    0.0,    4.6,   0.00,   0.00, 1019.5,   69.1, -999.0
05-04-2023, 00:40:06,    217,    0.0,    4.6,   0.00,   0.00, 1019.5,   69.2, -999.0
05-04-2023, 00:40:16,    217,    0.0,    4.6,   0.00,   0.00, 1019.5,   69.4, -999.0
05-04-2023, 00:40:26,    217,    0.0,    4.7,   0.00,   0.00, 1019.6,   69.4, -999.0
05-04-2023, 00:40:36,    218,    0.0,    4.7,   0.00,   0.00, 1019.5,   69.5, -999.0
05-04-2023, 00:40:46,    217,    0.0,    4.7,   0.00,   0.00, 1019.6,   69.5, -999.0
05-04-2023, 00:40:56,    217,    0.0,    4.6,   0.00,   0.00, 1019.5,   69.4, -999.0
05-04-2023, 00:41:06,    218,    0.0,    4.6,   0.00,   0.00, 1019.6,   69.4, -999.0
05-04-2023, 00:41:16,    218,    0.0,    4.6,   0.00,   0.00, 1019.6,   69.2, -999.0
05-04-2023, 00:41:26,    217,    0.0,    4.7,   0.00,   0.00, 1019.6,   69.2, -999.0
05-04-2023, 00:41:36,    217,    0.0,    4.7,   0.00,   0.00, 1019.5,   69.3, -999.0
05-04-2023, 00:41:46,    217,    0.0,    4.6,   0.00,   0.00, 1019.6,   69.3, -999.0
05-04-2023, 00:41:56,    217,    0.0,    4.7,   0.00,   0.00, 1019.6,   69.4, -999.0
05-04-2023, 00:42:06,    217,    0.0,    4.6,   0.00,   0.00, 1019.6,   69.4, -999.0
05-04-2023, 00:42:16,    218,    0.0,    4.6,   0.00,   0.00, 1019.5,   69.4, -999.0
05-04-2023, 00:42:25,    217,    0.0,    4.6,   0.00,   0.00, 1019.5,   69.3, -999.0
05-04-2023, 00:42:36,    217,    0.0,    4.5,   0.00,   0.00, 1019.6,   69.3, -999.0
05-04-2023, 00:42:46,    217,    0.0,    4.5,   0.00,   0.00, 1019.5,   69.3, -999.0
05-04-2023, 00:42:55,    218,    0.0,    4.6,   0.00,   0.00, 1019.5,   69.5, -999.0
05-04-2023, 00:43:05,    217,    0.0,    4.6,   0.00,   0.00, 1019.5,   69.6, -999.0
05-04-2023, 00:43:16,    217,    0.0,    4.6,   0.00,   0.00, 1019.5,   69.7, -999.0
05-04-2023, 00:43:26,    217,    0.0,    4.6,   0.00,   0.00, 1019.5,   69.6, -999.0
05-04-2023, 00:43:35,    217,    0.0,    4.6,   0.00,   0.00, 1019.5,   69.7, -999.0
05-04-2023, 00:43:45,    217,    0.0,    4.6,   0.00,   0.00, 1019.5,   69.7, -999.0
05-04-2023, 00:43:56,    217,    0.0,    4.6,   0.00,   0.00, 1019.5,   69.7, -999.0
05-04-2023, 00:44:06,    217,    0.0,    4.3,   0.00,   0.00, 1019.5,   69.7, -999.0
05-04-2023, 00:44:15,    217,    0.0,    4.5,   0.00,   0.00, 1019.5,   69.7, -999.0
05-04-2023, 00:44:25,    217,    0.0,    4.6,   0.00,   0.00, 1019.5,   69.7, -999.0
05-04-2023, 00:44:36,    218,    0.0,    4.5,   0.00,   0.00, 1019.5,   69.6, -999.0
05-04-2023, 00:44:45,    217,    0.0,    4.6,   0.00,   0.00, 1019.5,   69.6, -999.0
05-04-2023, 00:44:55,    217,    0.0,    4.5,   0.00,   0.00, 1019.5,   69.6, -999.0
05-04-2023, 00:45:06,    217,    0.0,    4.5,   0.00,   0.00, 1019.5,   69.5, -999.0
05-04-2023, 00:45:16,    217,    0.0,    4.4,   0.00,   0.00, 1019.5,   69.5, -999.0
05-04-2023, 00:45:25,    217,    0.0,    4.5,   0.00,   0.00, 1019.4,   69.6, -999.0
05-04-2023, 00:45:35,    217,    0.0,    4.6,   0.00,   0.00, 1019.5,   69.7, -999.0
05-04-2023, 00:45:46,    217,    0.0,    4.5,   0.00,   0.00, 1019.5,   69.6, -999.0
05-04-2023, 00:45:55,    217,    0.0,    4.2,   0.00,   0.00, 1019.5,   69.7, -999.0
05-04-2023, 00:46:05,    217,    0.0,    4.4,   0.00,   0.00, 1019.5,   69.7, -999.0
05-04-2023, 00:46:15,    217,    0.0,    4.5,   0.00,   0.00, 1019.5,   69.8, -999.0
05-04-2023, 00:46:26,    217,    0.0,    4.5,   0.00,   0.00, 1019.4,   69.9, -999.0
05-04-2023, 00:46:35,    216,    0.0,    4.4,   0.00,   0.00, 1019.4,   69.8, -999.0
05-04-2023, 00:46:45,    216,    0.0,    4.4,   0.00,   0.00, 1019.4,   69.8, -999.0